Location: Nag� el Ma?a??a
(24.0667°N, 32.8833°E)
Time: 16:15:12
(UTC+00:00)

USA 267 - Pass Details

Date: 25 September 2021
Orbit: 1101 x 1106 km, 123.0° (Epoch: 02 September)

Event Time Altitude Azimuth Distance (km) Brightness Sun altitude
Rises 02:32:38 0° 46° (NE) 3,914 7.0 -15.8°
Reaches altitude 10° 02:35:12 10° 52° (NE) 2,955 6.4 -15.2°
Maximum altitude 02:41:30 51° 126° (SE) 1,361 4.1 -13.8°
Drops below altitude 10° 02:47:46 10° 201° (SSW) 2,947 5.3 -12.3°
Sets 02:50:20 0° 206° (SSW) 3,903 5.8 -11.7°
